Regional Weather Roundup
Issued by NWS Grand Forks, ND

Home | Current Version | Previous Version | Graphics & Text | Print | Product List | Glossary On
Versions: 1 2 3 4 5 6 7 8 9 10 11 12 13 14 15 16 17 18 19 20 21 22 23 24 25 26 27 28 29 30 31 32 33 34 35 36 37 38 39 40 41 42 43 44 45 46 47 48 49 50
000
ASUS43 KFGF 012010
RWRFGF
PRAIRIE TO PINES  WEATHER ROUNDUP
NATIONAL WEATHER SERVICE EASTERN NORTH DAKOTA/GRAND FORKS ND
200 PM CST SUN FEB 01 2015

 **SATELLITE DATA USED TO AUGMENT SKY COVER AT AUTOMATED STATIONS**
 *****  WEATHER ACROSS EASTERN NORTH DAKOTA  *****

CITY           SKY/WX    TMP DP  RH WIND       PRES   REMARKS
GRAND FORKS    SUNNY      0 -13  54 N12       30.50F WCI -17
GRAND FRKS AFB SUNNY      0 -16  46 N6        30.49F WCI -11
GRAND FRKS NWS   N/A      0 N/A N/A N14         N/A  WCI -19
DEVILS LAKE    SUNNY     -2 -17  50 W7        30.42F WCI -16
FARGO          SUNNY      5 -12  45 N15       30.46F WCI -13
WAHPETON ARPT  CLEAR      5  -9  51 N17       30.42F WCI -14
$$

 ***** WEATHER ACROSS CENTRAL AND WESTERN NORTH DAKOTA  *****

CITY           SKY/WX    TMP DP  RH WIND       PRES   REMARKS
BISMARCK       SUNNY      3 -13  47 VRB5      30.44F WCI  -6
MINOT          SUNNY      2 -13  49 VRB5      30.38F WCI  -8
JAMESTOWN      SUNNY      2 -14  47 NW10      30.42F WCI -14
MINOT AFB      SUNNY      3  -9  55 SW6       30.38F WCI  -8
GARRISON         N/A      0 -13  54 SW7       30.38F WCI -13
WILLISTON      SUNNY      3  -5  69 SW12      30.37F WCI -13
DICKINSON      SUNNY      2  -8  63 W7        30.31F WCI -11
HETTINGER      SUNNY      4  -3  73 NW9       30.33F WCI -10
$$

 *****  OTHER AIRPORT OBSERVATIONS IN OUR AREA  *****

CITY           SKY/WX    TMP DP  RH WIND       PRES   REMARKS
WALHALLA         N/A      0 -17  46 W3        30.48F
GRAFTON AIRPOR NOT AVBL
VALLEY CITY AR FAIR       1 -13  51 N9        30.42F WCI -14
CANDO          FAIR       0 -13  55 W9        30.42F WCI -16
CAVALIER APRT  FAIR       0 -15  50 N3        30.49F
GWINNER        CLEAR      5 -11  47 N16G22    30.44F WCI -14
ROLLA          FAIR      -2 -13  60 SW13      30.35F WCI -21
 ***** THE ABOVE OBSERVATIONS ARE NON NWS ARE NOT QUALITY
       CONTROLLED AND MAY MIS-REPORT RAIN FOR SNOW...
$$

  *****  WEATHER ACROSS NORTHERN MINNESOTA  *****

CITY           SKY/WX    TMP DP  RH WIND       PRES   REMARKS
FLAG ISLAND    SUNNY     -8 -17  65 N5        30.42F WCI -19
WARROAD        SUNNY     -6 -17  59 S6        30.43F WCI -18
ROSEAU         SUNNY     -4 -15  59 W3        30.45F
HALLOCK        SUNNY     -6 -15  65 W5        30.50F WCI -17
THF RVR FALLS  SUNNY     -2 -11  65 NW9       30.45F WCI -18
BAUDETTE       SUNNY     -6 -18  56 N9        30.41F WCI -23
WASKISH        SUNNY      0 -11  60 CALM      30.40F
CROOKSTON      SUNNY     -2 -11  65 N12G20    30.50F WCI -20
STEPHEN NDAWN    N/A     -6 -15  65 NW7         N/A  WCI -20
GREENBUSH NDAW   N/A     -2 -15  55 N6          N/A  WCI -14
$$
  *****  WEATHER ACROSS CENTRAL AND WEST MINNESOTA  *****

CITY           SKY/WX    TMP DP  RH WIND       PRES   REMARKS
FOSSTON        SUNNY      3 -11  51 N12       30.41F WCI -13
BEMIDJI        SUNNY      0 -14  51 N7        30.36F WCI -13
PARK RAPIDS    SUNNY      5 -15  39 N10       30.32F WCI -10
ELBOW LAKE     FAIR       9  -5  53 N14       30.34F WCI  -8
WADENA         SUNNY      7 -13  40 N10       30.32F WCI  -8
DETROIT LAKES  SUNNY      7  -8  51 N10       30.36F WCI  -8
MOORHEAD       SUNNY      5 -11  47 N17       30.45F WCI -14
FERGUS FALLS   SUNNY      7 -11  43 N10G17    30.41F WCI  -8
MORRIS MN      SUNNY     12   0  57 N17       30.32F WCI  -5
STAPLES        SUNNY      7 -17  33 NE9       30.31F WCI  -7
$$
  *****  WEATHER ELSEWHERE ACROSS MINNESOTA  *****

CITY           SKY/WX    TMP DP  RH WIND       PRES   REMARKS
DULUTH         MOSUNNY    8 -14  35 N10       30.26F WCI  -6
INTRNTL FALLS  SUNNY      0 -15  49 N6        30.38F WCI -12
ELY            SUNNY      1 -17  42 NE7       30.30F WCI -11
CLOQUET        SUNNY      7 -17  33 N7        30.27F WCI  -5
WHEATON        SUNNY      3  -8  60 NW17G23   30.41F WCI -17
BRAINERD       SUNNY      9 -14  34 N10       30.30F WCI  -5
HIBBING        SUNNY      5 -15  39 N8        30.31F WCI  -8
ALEXANDRIA     SUNNY     10  -2  58 N12       30.29F WCI  -5
SAINT CLOUD    SUNNY     14  -1  51 N14G25    30.26F WCI  -1
MINNEAPOLIS    PTSUNNY   17   3  54 N18G25    30.21F WCI   1
$$

  *****  WEATHER ACROSS SOUTH DAKOTA  *****

CITY           SKY/WX    TMP DP  RH WIND       PRES   REMARKS
SIOUX FALLS    CLOUDY     8   1  73 N23       30.24S BLWGSNOWWCI -13
BROOKINGS      NOT AVBL
WATERTOWN      MOSUNNY    6  -1  73 N16       30.29S WCI -12
HURON          PTSUNNY    4  -5  66 N22       30.39F WCI -18
SISSETON         N/A      5  -8  55 N21       30.39F WCI -16
ABERDEEN       SUNNY      7  -7  52 N17G24    30.44F WCI -12
MITCHELL       CLOUDY     4  -2  76 N22       30.37S BLWGSNOWWCI -18
PIERRE         MOSUNNY    4  -5  66 NW17      30.41F WCI -16
MOBRIDGE       SUNNY      4 -11  50 N10       30.39F WCI -11
RAPID CITY     SUNNY     12   6  77 N17       30.30F WCI  -5
$$

  *****  SOME WEATHER IN NEARBY STATES *****

CITY           SKY/WX    TMP DP  RH WIND       PRES   REMARKS
GLASGOW MT     SUNNY      6   0  76 SE13      30.25F WCI -10
GREAT FALLS MT PTSUNNY   24  16  71 SW7       30.01F WCI  16
CHEYENNE WY    SUNNY     23  11  60 N15G24    30.10F WCI  10
SCOTTSBLUFF NE PTSUNNY   20   9  62 N20       30.25F WCI   4
OMAHA NE       SNOW      16  12  84 N28G38    30.09R VSB 1/2 WCI  -4
DES MOINES IA  SNOW      20  15  81 N20G31    29.94R VSB 1/2 WCI   4
DAVENPORT IA   HVY SNOW  22  18  85 NE25G38   29.77F VSB 1/4 WCI   5
CHICAGO IL     HVY SNOW  24  22  91 NE21G31   29.78S VSB 1/4 WCI   9
EAU CLAIRE WI  CLOUDY    14   0  53 N15G24    30.16F WCI  -1
LA CROSSE WI   LGT SNOW  17   8  67 N17       30.09F WCI   1
$$

  *****  SOME NATIONAL WEATHER *****

CITY           SKY/WX    TMP DP  RH WIND       PRES   REMARKS
LA GUARDIA NY  PTSUNNY   35  18  49 W8        30.14S
RALEIGH NC     CLOUDY    55  20  25 SW12      30.12F
ATLANTA GA     LGT RAIN  54  48  82 S8        30.00F
NEW ORLEANS LA CLOUDY    73  59  61 SW15      29.92F
OKLAHOMA CITY  PTSUNNY   39  23  52 N31G43    30.07R
ALBUQUERQUE NM MOSUNNY   47  29  49 N8        30.13F
SALT LAKE CITY MOSUNNY   47  27  45 S5        30.20F
LOS ANGELES CA MOSUNNY   68  49  50 CALM      30.10F
BOISE ID       CLOUDY    42  30  62 S10       30.17F
SEATTLE WA     DRIZZLE   43  39  87 S3        30.06S
$$

*** WEATHER ACROSS MANITOBA...SASKATCHEWAN AND ONTARIO ***
                ***ONTARIO***

CITY           SKY/WX    TMP DP  RH WIND       PRES   REMARKS
GERALDTON      MOSUNNY   -6 -17  59 W5        30.28F WCI -17
THUNDER BAY    MOSUNNY    3 -15  43 W8        30.36F WCI -10
SIOUX LOOKOUT  MOSUNNY   -8 -20  54 W3        30.34F
TORONTO        CLOUDY    12   3  67 NE13      30.16F WCI  -3
BIG TROUT LK   SUNNY    -11 -22  58 W14       30.23F WCI -33
PICKLE LAKE    SUNNY     -6 -18  54 W8        30.26F WCI -21
DRYDEN         SUNNY     -4 -18  50 W5        30.34F WCI -15
KENORA         MOSUNNY   -6 -18  54 NW6       30.38F WCI -18
$$
                *** MANITOBA***

CITY           SKY/WX    TMP DP  RH WIND       PRES   REMARKS
BRANDON        SUNNY     -6 -17  59 W10       30.41F WCI -23
DAUPHIN        SUNNY      0 -13  55 W10       30.37F WCI -17
ISLAND LAKE    PTSUNNY   -8 -18  59 W10       30.29F WCI -26
PILOT MOUND      N/A     -6 -17  59 SW8         N/A  WCI -21
THE PAS        PTSUNNY   -2 -13  60 SW6       30.26F WCI -14
THOMPSON       CRYSTALS  -9 -22  54 W9        30.20F WCI -27
WINNIPEG       SUNNY     -6 -18  54 SW9       30.49F WCI -22
LYNN LAKE      PTSUNNY   -8 -17  65 W9        30.11F WCI -25
CHURCHILL      CRYSTALS -20 -29  63 W8        30.15F WCI -39
GILLAM         PTSUNNY  -17 -26  63 W12       30.20F WCI -38
$$
                ***SASKATCHEWAN***

CITY           SKY/WX    TMP DP  RH WIND       PRES   REMARKS
ESTEVAN        MOSUNNY    7  -8  51 SW12G17   30.31F WCI  -9
KINDERSLEY     CRYSTALS   5   0  78 S8        30.11F WCI  -8
LLOYDMINSTER   NOT AVBL
PRINCE ALBERT  FLURRIES   3  -6  66 SW10      30.20F WCI -12
REGINA         PTSUNNY    1  -6  71 SE10      30.27F WCI -14
YORKTON        SUNNY     -4 -17  54 SW8       30.30F WCI -19
N. BATTLEFORD  SUNNY      9   1  72 W13       30.16F WCI  -7
LA RONGE       FLURRIES  -6 -13  71 S3        30.15F
SASKATOON      PTSUNNY    5  -2  72 SW10      30.20F WCI -10
SWIFT CURRENT  SUNNY     10   5  79 S16G24    30.10F WCI  -7
$$
NOTE: THESE ARE AUTOMATED STATIONS WITH LIMITED QUALITY CONTROL
      "FAIR" INDICATES FEW OR NO CLOUDS BELOW 12,000 FEET WITH NO
      SIGNIFICANT WEATHER AND/OR OBSTRUCTIONS TO VISIBILITY.
      SKY/WX - SKY CONDITION AND SIGNIFICANT WEATHER.
      TMP - AIR TEMPERATURE.    DP   - DEWPOINT TEMPERATURE.
      RH  - RELATIVE HUMIDITY.  PRES - PRESSURE.
      HX  - HEAT INDEX.         WCI  - WIND CHILL INDEX.
$



USA.gov is the U.S. government's official web portal to all federal, state and local government web resources and services.